When you browse on this site, cookies collect data to enhance your experience and personalize the content and advertising you see.
Visit our Privacy Policy to learn more. By continuing to use the site, you agree to this use of cookies and data.
  • In Hungary
  • List of Countries
  • For 7 days
  • Water Temperature
  • Satellite Maps
  • Weather Map
  • News
  • Weather Widgets
  • user-avatar
    Login

    Hourly Weather Actlzayanca de Hidalgo

    Today, 18 February, Monday

    Time Temperature Precipitation Wind Pressure Humidity
    00:00 +12°C° 0 mm 1 mps 551 mmHg 44%
    01:00 +12°C° 0 mm 1 mps 550 mmHg 47%
    02:00 +10°C° 0 mm 2 mps 550 mmHg 49%
    03:00 +11°C° 0 mm 1 mps 550 mmHg 52%
    04:00 +10°C° 0 mm 1 mps 550 mmHg 55%
    05:00 +10°C° 0 mm 2 mps 550 mmHg 62%
    06:00 +12°C° 0 mm 2 mps 552 mmHg 56%
    07:00 +14°C° 0 mm 2 mps 553 mmHg 50%
    08:00 +16°C° 0 mm 2 mps 554 mmHg 44%
    09:00 +18°C° 0 mm 2 mps 555 mmHg 38%
    10:00 +21°C° 0 mm 3 mps 557 mmHg 31%
    11:00 +23°C° 0 mm 4 mps 558 mmHg 25%
    12:00 +25°C° 0 mm 5 mps 558 mmHg 24%
    13:00 +25°C° 0 mm 5 mps 557 mmHg 23%
    14:00 +24°C° 0 mm 6 mps 557 mmHg 22%
    15:00 +23°C° 0 mm 5 mps 557 mmHg 26%
    16:00 +22°C° 0 mm 5 mps 556 mmHg 31%
    17:00 +21°C° 0 mm 4 mps 555 mmHg 35%
    18:00 +19°C° 0.1 mm 4 mps 555 mmHg 40%
    19:00 +17°C° 0.1 mm 3 mps 554 mmHg 45%
    20:00 +16°C° 0.1 mm 2 mps 554 mmHg 51%
    21:00 +15°C° 0 mm 2 mps 554 mmHg 55%
    22:00 +14°C° 0 mm 2 mps 553 mmHg 58%
    23:00 +14°C° 0 mm 2 mps 553 mmHg 62%

    Tomorrow, 19 February, Tuesday

    Time Temperature Precipitation Wind Pressure Humidity
    00:00 +13°C° 0 mm 2 mps 553 mmHg 69%
    01:00 +12°C° 0 mm 2 mps 552 mmHg 76%
    02:00 +12°C° 0 mm 2 mps 551 mmHg 83%
    03:00 +10°C° 0 mm 2 mps 551 mmHg 84%
    04:00 +10°C° 0 mm 2 mps 551 mmHg 85%
    05:00 +9°C° 0 mm 2 mps 550 mmHg 86%
    06:00 +10°C° 0 mm 3 mps 551 mmHg 76%
    07:00 +12°C° 0 mm 3 mps 552 mmHg 67%
    08:00 +13°C° 0 mm 3 mps 553 mmHg 58%
    09:00 +15°C° 0 mm 4 mps 554 mmHg 48%
    10:00 +17°C° 0 mm 5 mps 555 mmHg 38%
    11:00 +20°C° 0 mm 6 mps 556 mmHg 29%
    12:00 +20°C° 0 mm 7 mps 555 mmHg 26%
    13:00 +21°C° 0 mm 7 mps 554 mmHg 23%
    14:00 +21°C° 0 mm 8 mps 554 mmHg 20%
    15:00 +20°C° 0 mm 7 mps 553 mmHg 23%
    16:00 +17°C° 0 mm 6 mps 552 mmHg 25%
    17:00 +16°C° 0 mm 6 mps 552 mmHg 27%
    18:00 +15°C° 0 mm 5 mps 551 mmHg 32%
    19:00 +13°C° 0 mm 3 mps 551 mmHg 36%
    20:00 +13°C° 0 mm 2 mps 551 mmHg 41%
    21:00 +12°C° 0 mm 2 mps 550 mmHg 43%
    22:00 +12°C° 0 mm 2 mps 550 mmHg 45%
    23:00 +10°C° 0 mm 2 mps 550 mmHg 47%

    Day after tomorrow, 20 February, Wednesday

    Time Temperature Precipitation Wind Pressure Humidity
    00:00 +9°C° 0 mm 2 mps 549 mmHg 50%
    01:00 +9°C° 0 mm 2 mps 548 mmHg 52%
    02:00 +8°C° 0 mm 2 mps 548 mmHg 55%
    03:00 +8°C° 0 mm 2 mps 548 mmHg 58%
    04:00 +7°C° 0 mm 2 mps 547 mmHg 60%
    05:00 +8°C° 0 mm 1 mps 547 mmHg 63%
    06:00 +8°C° 0 mm 2 mps 548 mmHg 57%
    07:00 +10°C° 0 mm 2 mps 550 mmHg 52%
    08:00 +13°C° 0 mm 2 mps 551 mmHg 46%
    09:00 +15°C° 0 mm 2 mps 552 mmHg 39%
    10:00 +17°C° 0 mm 2 mps 553 mmHg 31%
    11:00 +20°C° 0 mm 3 mps 554 mmHg 23%
    12:00 +20°C° 0 mm 3 mps 554 mmHg 22%
    13:00 +21°C° 0 mm 4 mps 553 mmHg 20%
    14:00 +21°C° 0 mm 5 mps 553 mmHg 19%
    15:00 +20°C° 0 mm 5 mps 553 mmHg 21%
    16:00 +19°C° 0 mm 5 mps 552 mmHg 24%
    17:00 +17°C° 0 mm 5 mps 551 mmHg 26%
    18:00 +15°C° 0 mm 4 mps 551 mmHg 30%
    19:00 +13°C° 0 mm 3 mps 551 mmHg 34%
    20:00 +13°C° 0 mm 2 mps 550 mmHg 38%
    21:00 +12°C° 0 mm 2 mps 550 mmHg 39%
    22:00 +12°C° 0 mm 2 mps 550 mmHg 39%
    23:00 +10°C° 0 mm 2 mps 550 mmHg 40%

    21 February, Thursday

    Time Temperature Precipitation Wind Pressure Humidity
    00:00 +10°C° 0 mm 2 mps 550 mmHg 42%
    01:00 +9°C° 0 mm 2 mps 549 mmHg 44%
    02:00 +8°C° 0 mm 2 mps 549 mmHg 45%
    03:00 +8°C° 0 mm 2 mps 548 mmHg 49%
    04:00 +8°C° 0 mm 2 mps 548 mmHg 52%
    05:00 +7°C° 0 mm 2 mps 548 mmHg 56%
    06:00 +9°C° 0 mm 2 mps 549 mmHg 52%
    07:00 +10°C° 0 mm 2 mps 551 mmHg 48%
    08:00 +13°C° 0 mm 2 mps 552 mmHg 44%
    09:00 +16°C° 0 mm 3 mps 553 mmHg 36%
    10:00 +18°C° 0 mm 3 mps 554 mmHg 28%
    11:00 +20°C° 0 mm 4 mps 555 mmHg 20%
    12:00 +21°C° 0 mm 4 mps 555 mmHg 19%
    13:00 +21°C° 0 mm 5 mps 554 mmHg 17%
    14:00 +22°C° 0 mm 5 mps 554 mmHg 16%
    15:00 +21°C° 0 mm 5 mps 553 mmHg 18%
    16:00 +19°C° 0 mm 5 mps 553 mmHg 21%
    17:00 +17°C° 0 mm 5 mps 552 mmHg 23%
    18:00 +15°C° 0 mm 4 mps 552 mmHg 26%
    19:00 +14°C° 0 mm 3 mps 551 mmHg 29%
    20:00 +13°C° 0 mm 2 mps 551 mmHg 32%
    21:00 +12°C° 0 mm 2 mps 551 mmHg 34%
    22:00 +12°C° 0 mm 2 mps 550 mmHg 37%
    23:00 +11°C° 0 mm 1 mps 550 mmHg 40%

    22 February, Friday

    Time Temperature Precipitation Wind Pressure Humidity
    00:00 +11°C° 0 mm 1 mps 550 mmHg 43%
    01:00 +10°C° 0 mm 1 mps 549 mmHg 45%
    02:00 +10°C° 0 mm 1 mps 549 mmHg 48%
    03:00 +10°C° 0 mm 1 mps 549 mmHg 50%
    04:00 +9°C° 0 mm 1 mps 549 mmHg 53%
    05:00 +9°C° 0 mm 1 mps 549 mmHg 55%
    06:00 +11°C° 0 mm 1 mps 551 mmHg 49%
    07:00 +13°C° 0 mm 1 mps 552 mmHg 43%
    08:00 +14°C° 0 mm 1 mps 553 mmHg 36%
    09:00 +18°C° 0 mm 1 mps 554 mmHg 30%
    10:00 +20°C° 0 mm 1 mps 556 mmHg 24%
    11:00 +21°C° 0 mm 2 mps 557 mmHg 17%
    12:00 +23°C° 0 mm 2 mps 556 mmHg 16%
    13:00 +23°C° 0 mm 2 mps 556 mmHg 15%
    14:00 +24°C° 0 mm 3 mps 555 mmHg 15%
    15:00 +22°C° 0 mm 3 mps 555 mmHg 17%
    16:00 +21°C° 0 mm 3 mps 554 mmHg 20%
    17:00 +19°C° 0 mm 3 mps 554 mmHg 23%
    18:00 +18°C° 0 mm 3 mps 553 mmHg 25%
    19:00 +16°C° 0 mm 2 mps 553 mmHg 28%
    20:00 +14°C° 0 mm 2 mps 552 mmHg 30%
    21:00 +14°C° 0 mm 2 mps 552 mmHg 31%
    22:00 +13°C° 0 mm 2 mps 552 mmHg 32%
    23:00 +12°C° 0 mm 2 mps 551 mmHg 33%

    23 February, Saturday

    Time Temperature Precipitation Wind Pressure Humidity
    00:00 +12°C° 0 mm 2 mps 551 mmHg 38%
    01:00 +10°C° 0 mm 2 mps 550 mmHg 44%
    02:00 +10°C° 0 mm 2 mps 550 mmHg 49%
    03:00 +9°C° 0 mm 2 mps 550 mmHg 53%
    04:00 +9°C° 0 mm 2 mps 550 mmHg 57%
    05:00 +8°C° 0 mm 2 mps 550 mmHg 61%
    06:00 +10°C° 0 mm 2 mps 551 mmHg 56%
    07:00 +12°C° 0 mm 2 mps 552 mmHg 52%
    08:00 +14°C° 0 mm 2 mps 553 mmHg 47%
    09:00 +16°C° 0 mm 1 mps 554 mmHg 41%
    10:00 +20°C° 0 mm 1 mps 556 mmHg 35%
    11:00 +22°C° 0 mm 1 mps 557 mmHg 29%
    12:00 +22°C° 0 mm 1 mps 556 mmHg 27%
    13:00 +23°C° 0 mm 2 mps 556 mmHg 26%
    14:00 +23°C° 0 mm 2 mps 555 mmHg 25%
    15:00 +21°C° 0 mm 2 mps 555 mmHg 29%
    16:00 +20°C° 0 mm 2 mps 554 mmHg 33%
    17:00 +19°C° 0 mm 2 mps 554 mmHg 37%
    18:00 +18°C° 0 mm 2 mps 554 mmHg 38%
    19:00 +18°C° 0 mm 1 mps 554 mmHg 40%
    20:00 +16°C° 0 mm 1 mps 554 mmHg 41%
    21:00 +16°C° 0 mm 1 mps 554 mmHg 41%
    22:00 +15°C° 0 mm 1 mps 553 mmHg 41%
    23:00 +14°C° 0 mm 1 mps 553 mmHg 41%
    Show more